Alexandria, MN

1:04 AM CST on February 13, 2016 (GMT -0600)
Chandler

Weather History for KAXN - March, 2012

Change the Weather History Date:

Monday, March 5, 2012

  Actual Average Record
Temperature  
Mean Temperature 20 °F -  
Max Temperature 33 °F 30 °F 56 °F (1987)
Min Temperature 8 °F 10 °F -18 °F (1960)
Degree Days  
Heating Degree Days 44    
Moisture  
Dew Point 16 °F    
Average Humidity 86    
Maximum Humidity 92    
Minimum Humidity 72    
Precipitation  
Precipitation 0.00 in - - ()
Sea Level Pressure  
Sea Level Pressure 30.03 in    
Wind  
Wind Speed 8 mph (South)    
Max Wind Speed 24 mph    
Max Gust Speed 34 mph    
Visibility 6 miles    
Events Fog    
Averages and records for this station are not official NWS values.
T = Trace of Precipitation, MM = Missing Value Source: NWS Daily Summary

Daily Weather History Graph

Daily Weather History Graph

Search for Another Location

Airport or City:

Trip Planner

Search our weather history database for the weather conditions in past years. The results will help you decide how hot, cold, wet, or windy it might be!

Date:

Astronomy

Mar. 05, 2012 Rise Set
Actual Time 6:52 AM CST 6:14 PM CST
Civil Twilight 6:22 AM CST 6:44 PM CST
Nautical Twilight 5:47 AM CST 7:18 PM CST
Astronomical Twilight 5:13 AM CST 7:53 PM CST
Moon 3:27 PM CST (3/5) 4:59 AM CST (3/5)
Length of Visible Light 12h 22m
Length of Day
11h 22m
Waxing Gibbous, 91% of the Moon is Illuminated
Mar 5
Waxing Gibbous
Mar 8
Full
Mar 14
Last Quarter
Mar 22
New
Mar 30
First Quarter

Hourly Weather History & Observations

Time (CST) Temp. Windchill Dew Point Humidity Pressure Visibility Wind Dir Wind Speed Gust Speed Precip Events Conditions
12:53 AM 14.0 °F 6.5 °F 10.9 °F 88% 30.16 in 8.0 mi NW 4.6 mph - N/A   Overcast
1:20 AM 14.0 °F 8.2 °F 10.4 °F 86% 30.07 in 8.0 mi West 3.5 mph - N/A   Scattered Clouds
1:53 AM 12.9 °F 6.9 °F 10.0 °F 88% 30.16 in 6.0 mi SW 3.5 mph - N/A   Clear
2:30 AM 8.6 °F -2.6 °F 6.8 °F 92% 30.09 in 5.0 mi WSW 6.9 mph - N/A   Scattered Clouds
2:38 AM 10.4 °F 2.2 °F 8.6 °F 92% 30.08 in 5.0 mi WSW 4.6 mph - N/A   Mostly Cloudy
2:53 AM 10.9 °F 4.7 °F 8.1 °F 88% 30.16 in 5.0 mi SW 3.5 mph - N/A   Overcast
3:46 AM 12.2 °F -1.0 °F 10.4 °F 92% 30.08 in 2.0 mi SW 10.4 mph - N/A   Overcast
3:53 AM 12.9 °F 0.7 °F 10.9 °F 92% 30.17 in 2.0 mi SW 9.2 mph - N/A   Overcast
4:11 AM 12.2 °F 2.9 °F 10.4 °F 92% 30.08 in 1.5 mi South 5.8 mph - N/A   Overcast
4:17 AM 12.2 °F 1.7 °F 10.4 °F 92% 30.08 in 0.8 mi SSW 6.9 mph - N/A   Overcast
4:26 AM 12.2 °F 0.7 °F 10.4 °F 92% 30.09 in 0.5 mi SSW 8.1 mph - N/A Fog Light Freezing Fog
4:53 AM 12.9 °F 2.6 °F 10.9 °F 92% 30.18 in 0.5 mi SSW 6.9 mph - N/A Fog Light Freezing Fog
5:43 AM 12.2 °F 1.7 °F 10.4 °F 92% 30.08 in 1.0 mi South 6.9 mph - N/A   Mist
5:53 AM 12.9 °F 2.6 °F 10.9 °F 92% 30.17 in 0.8 mi South 6.9 mph - N/A   Mist
6:00 AM 12.2 °F 1.7 °F 10.4 °F 92% 30.08 in 1.5 mi South 6.9 mph - N/A   Overcast
6:07 AM 12.2 °F 1.7 °F 10.4 °F 92% 30.08 in 3.0 mi South 6.9 mph - N/A   Overcast
6:23 AM 12.2 °F 2.9 °F 10.4 °F 92% 30.09 in 5.0 mi South 5.8 mph - N/A   Mostly Cloudy
6:53 AM 14.0 °F 3.9 °F 12.0 °F 92% 30.16 in 5.0 mi South 6.9 mph - N/A   Overcast
7:53 AM 17.1 °F 5.8 °F 14.0 °F 88% 30.14 in 7.0 mi South 9.2 mph - N/A   Overcast
8:53 AM 19.0 °F 8.2 °F 16.0 °F 88% 30.13 in 8.0 mi SSE 9.2 mph - N/A   Overcast
9:53 AM 19.9 °F 7.9 °F 17.1 °F 89% 30.10 in 9.0 mi SSE 11.5 mph - N/A   Overcast
10:53 AM 24.1 °F 10.1 °F 18.0 °F 77% 30.07 in 10.0 mi SSE 18.4 mph - N/A   Partly Cloudy
11:53 AM 27.0 °F 13.5 °F 19.9 °F 75% 30.02 in 10.0 mi SSE 19.6 mph 27.6 mph N/A   Scattered Clouds
12:53 PM 30.0 °F 17.2 °F 21.9 °F 72% 29.98 in 10.0 mi SSE 20.7 mph 29.9 mph N/A   Partly Cloudy
1:53 PM 32.0 °F 20.5 °F 24.1 °F 73% 29.95 in 10.0 mi South 18.4 mph 25.3 mph N/A   Clear
2:53 PM 33.1 °F 20.3 °F 25.0 °F 72% 29.91 in 10.0 mi South 24.2 mph 34.5 mph N/A   Partly Cloudy
3:53 PM 33.1 °F 20.9 °F 26.1 °F 75% 29.90 in 10.0 mi South 21.9 mph 31.1 mph N/A   Clear
4:53 PM 32.0 °F 20.5 °F 26.1 °F 79% 29.88 in 10.0 mi SSE 18.4 mph 27.6 mph N/A   Clear
5:53 PM 30.9 °F 19.8 °F 26.1 °F 82% 29.88 in 8.0 mi SSE 16.1 mph - N/A   Clear
6:53 PM 30.9 °F 21.7 °F 26.1 °F 82% 29.88 in 8.0 mi SSE 11.5 mph - N/A   Clear
7:53 PM 30.0 °F 20.0 °F 26.1 °F 85% 29.85 in 8.0 mi SSE 12.7 mph - N/A   Clear
8:53 PM 30.0 °F 23.2 °F 27.0 °F 88% 29.85 in 9.0 mi SE 6.9 mph - N/A   Clear
9:53 PM 30.0 °F 21.1 °F 26.1 °F 85% 29.83 in 10.0 mi SSE 10.4 mph - N/A   Clear
10:53 PM 30.9 °F 22.2 °F 26.1 °F 82% 29.81 in 10.0 mi SSE 10.4 mph - N/A   Clear
11:53 PM 30.9 °F 20.7 °F 26.1 °F 82% 29.77 in 10.0 mi South 13.8 mph - N/A   Clear